KetuaPoker | Poker Online Indonesia Terbesar & Terpercaya

200x200

Jackpot

Texas Poker Multi Jackpot System

Kini Telah hadir Jackpot SUPER ROYAL FLUSH

Kini Telah hadir Jackpot 2000 (khusus table VIP keatas).

Ikutilah global jackpot yang tersedia di system kami, dengan system jackpot terbaru dan pertama di indonesia, anda dapat membeli jackpot dengan harga 100 rupiah saja dan menangkan hadiahnya hingga puluhan juta rupiah.

Jackpot bukanlah suatu keharusan untuk dibeli, namun kami memberikan suatu fitur tambahan untuk member tercinta dari www.ketuapoker88.com.

Terdapat tiga pilihan harga jackpot yang bisa anda beli yaitu :100,500,1000 dan 2000(khusus table VIP Keatas) rupiah.

Hadiah dari Multi jackpot system www.ketuapoker88.com

  1. full house x 10 harga jackpot yang anda beli.
      (contoh:anda membeli 1000 maka:1000 X10 = 10.000)
  2. four of kind x 250 harga jackpot yang anda beli
      (contoh:anda membeli 1000 maka:1000 X250 = 250.000)
  3. Straight flush x 1200
      (contoh:anda membeli 1000 maka:1000 X1200 = 1.200.000)
  4. Royal flush x 10000 harga jackpot yang anda beli
      (contoh:anda membeli 1000 maka:1000 X10000 = 10.000.000)
  5. SUPER ROYAL FLUSH x 30000 harga jackpot yang anda beli
      (contoh:anda membeli 1000 maka:1000 X30000 = 30.000.000)

Kondisi kartu

  1. full house adalah kondisi kartu dimana kartu anda dan kartu tengah dengan total 7 kartu bisa mendapatkan nilai 5 kartu dengan kombinasi 1 tris(three of kind) dan 1 pair, contoh 3 kartu 10 dan 2 kartu 5
  2. Four of kind adalah kondisi kartu dimana kartu anda dan kartu tengah dengan total 7 kartu bisa mendapatkan nilai 5 kartu dengan kombinasi 4 kartu yang sama jumlah dan 1 kartu apapun juga contoh anda mendapatkan 4 buah kartu angka 3 dan 1 kartu apapun.
  3. Staright flush adalah kondisi kartu dimana kartu anda dan kartu tengah dengan total 7 kartu bisa mendapatkan nilai 5 kartu dengan kombinasi seri / staright dengan kembang yang sama contoh : urutan kartu dari angka 5, 6, 7, 8 , 9 10 dengan kembang yg sama misalnya as hati
  4. Royal flush adalah kondisi kartu dimana kartu anda dan kartu tengah dengan total 7 kartu bisa mendapatkan nilai 5 kartu dengan kombinasi seri / staright dengan kembang yang sama tetapi kartu tersebut haruslah dimulai dari 10. contoh 10, Queen, Jack, King dan aces dengan kembang yang sama
  5. Super Royal flush adalah kondisi kartu dimana Kedua kartu anda digabung dengan 3 kartu pertama meja haruslah royal flush. contoh kartu anda 10,Queen kembang sama dan 3 kartu pertama meja adalah Jack, King dan aces dengan kembang yang sama

Demikian adalah penjelasan dari Multi Jackpot www.ketuapoker88.com terima kasih dan selamat bermain salam hoki dari kami

Texas Poker Jackpot Winner

TOP SUPER ROYAL FLUSH
No.TanggalNamaPriceWin
118/08 10:17GODSICKSuper Royal flush15,000,000
218/08 04:09MENANG4292Super Royal flush60,000,000
318/08 00:46DUWITSuper Royal flush30,000,000
417/08 20:35B24C7AF2Super Royal flush1,500,000
517/08 20:06ANAASuper Royal flush15,000,000
TOP ROYAL FLUSH
No.TanggalNamaPriceWin
118/08 12:13O5WDEYRMPCRoyal flush5,000,000
218/08 12:04BIADAB20Royal flush2,000,000
318/08 12:00DWTBOBOCAH84Royal flush10,000,000
418/08 11:48MUMU003Royal flush1,000,000
518/08 11:41DEWASARURoyal flush1,000,000
TOP STRAIGHT FLUSH
No.TanggalNamaPriceWin
118/08 12:31MRHOKK1Straight Flush600,000
218/08 12:29D60592FCStraight Flush1,200,000
318/08 12:19TXZ25Straight Flush120,000
418/08 12:18CHAOWAStraight Flush240,000
518/08 12:17PRIAPKStraight Flush120,000
LATEST JACKPOT
No.TanggalNamaPriceWin
118/08 12:31JH1LUNFull House1,000
218/08 12:31AS12345Full House2,000
318/08 12:31KAJAIFull House5,000
418/08 12:31KZDILOFull House2,000
518/08 12:31RAJ4HFull House20,000
618/08 12:31DINAQFull House2,000
718/08 12:31TUYUL10Full House2,000
818/08 12:31MRHOKK1Straight Flush600,000
918/08 12:31AEON1117Four Of A Kind50,000
1018/08 12:30ARJUNPEAFull House5,000
1118/08 12:30LANGKAW1IFull House2,000
1218/08 12:30PANTURA008Full House5,000
1318/08 12:30IJNFull House5,000
1418/08 12:30VMO9RM3X6WFull House20,000
1518/08 12:30NGLAKIOFull House2,000
1618/08 12:30PE2NG707Full House1,000
1718/08 12:30GOEL16Full House2,000
1818/08 12:30BNN777Full House1,000
1918/08 12:30F6393AD8Full House2,000
2018/08 12:30W4Y213Full House5,000
2118/08 12:30LRYKFP65UJFull House10,000
2218/08 12:30DEMI999Full House10,000
2318/08 12:30NENGNIZZFull House1,000
2418/08 12:30DX1ABD1P4TFull House5,000
2518/08 12:30KASIBAHJPFour Of A Kind50,000
2618/08 12:30FF_1991Full House1,000
2718/08 12:30CANGCUT2Full House20,000
2818/08 12:30KALIJODO01Full House20,000
2918/08 12:30HONDA6666Full House2,000
3018/08 12:30AZIRA69Full House2,000
3118/08 12:30SEAN37Full House1,000
3218/08 12:30OJOL68Full House2,000
3318/08 12:30PONGKI18Full House5,000
3418/08 12:30PEPXXIFull House10,000
3518/08 12:30LAFOYA14Full House5,000
3618/08 12:30OTS99Full House10,000
3718/08 12:30NYONGKIKI1Full House2,000
3818/08 12:30DAUNBAWAFull House2,000
3918/08 12:30BARON59Full House20,000
4018/08 12:30BUNGARANAFull House2,000
4118/08 12:30B451NKFull House2,000
4218/08 12:30GU2CGFZ5V9Full House5,000
4318/08 12:30CHODET87Full House2,000
4418/08 12:30BR0W13Full House1,000
4518/08 12:30ASEM89Full House10,000
4618/08 12:30ZCUIN1VDTYFull House5,000
4718/08 12:30M0CHIFull House20,000
4818/08 12:30ECAEBELLFull House20,000
4918/08 12:30OF64NQLPPBFull House2,000
5018/08 12:30OD6HNPLZCNFull House1,000

Domino Multi Jackpot System

Ikutilah global jackpot yang tersedia di system kami, dengan system jackpot terbaru dan pertama di indonesia, anda dapat membeli jackpot dengan harga 100 rupiah saja dan menangkan hadiahnya hingga puluhan juta rupiah.

Jackpot bukanlah suatu keharusan untuk dibeli, namun kami memberikan suatu fitur tambahan untuk member tercinta dari www.ketuapoker88.com.

Terdapat tiga pilihan harga jackpot yang bisa anda beli yaitu :100,500 dan 1000 rupiah.

Hadiah dari Multi jackpot system www.ketuapoker88.com

  1. Murni Kecil x 50 harga jackpot yang anda beli.
      (contoh:anda membeli 1000 maka:1000 X 50 = 50.000)
  2. Murni Besar x 50 harga jackpot yang anda beli
      (contoh:anda membeli 1000 maka:1000 X 50 = 50.000)
  3. BALAK x 100 harga jackpot yang anda beli
      (contoh:anda membeli 1000 maka:1000 X 100 = 100.000)
  4. ENAM DEWA x 6666 harga jackpot yang anda beli
      (contoh:anda membeli 1000 maka:1000 X 6666 = 6.666.000)

Demikian adalah penjelasan dari Multi Jackpot www.ketuapoker88.com terima kasih dan selamat bermain salam hoki dari kami

Domino Jackpot Winner

TOP ENAM DEWA
No.TanggalNamaPriceWin
118/08 10:49INODEmurni enam6,666,000
218/08 10:47E_M_M_4murni enam6,666,000
318/08 09:29JAMPANGmurni enam3,333,000
418/08 09:05DOMINOBETRmurni enam6,666,000
518/08 06:17CICURUT303murni enam6,666,000
TOP BALAK
No.TanggalNamaPriceWin
118/08 12:29CUPENG47balak10,000
218/08 12:26SAMSUR146balak100,000
318/08 12:22TEMPUR485balak10,000
418/08 12:15NJH505balak10,000
518/08 12:15DOCTER10balak100,000
LATEST JACKPOT
No.TanggalNamaPriceWin
118/08 12:31SEMOGAWDmurni besar5,000
218/08 12:30UWANRENOmurni besar50,000
318/08 12:30F060murni besar5,000
418/08 12:30KALANGAN36murni besar25,000
518/08 12:29BAYUALFIANmurni kecil50,000
618/08 12:29SRIKANDI84murni besar50,000
718/08 12:29GIREMmurni kecil25,000
818/08 12:29CUPENG47balak10,000
918/08 12:28SE7ENSKYmurni besar50,000
1018/08 12:28WARIS_CHAmurni besar25,000
1118/08 12:28CUTZZZmurni kecil5,000
1218/08 12:28SIMBAHmurni besar50,000
1318/08 12:27LB881007murni besar25,000
1418/08 12:26VHY86murni besar50,000
1518/08 12:26SAMSUR146balak100,000
1618/08 12:25GAMNZUWW3Zmurni kecil5,000
1718/08 12:25MULTIJOKmurni besar25,000
1818/08 12:25CUTZZZmurni besar5,000
1918/08 12:25PURWADI_44lucky99200,000
2018/08 12:24WEDUS_86murni besar25,000
2118/08 12:24ANDRE01murni kecil5,000
2218/08 12:23GOTRIEmurni kecil50,000
2318/08 12:23PO12HELOmurni besar50,000
2418/08 12:23SUROYO12murni kecil5,000
2518/08 12:22U64Nmurni kecil50,000
2618/08 12:22RONDO_RTmurni besar5,000
2718/08 12:22TEMPUR485balak10,000
2818/08 12:22TANGS28murni besar50,000
2918/08 12:22D68C7893murni kecil25,000
3018/08 12:22LICIN99murni kecil50,000
3118/08 12:21KOMISI7murni besar50,000
3218/08 12:20USSPmurni besar50,000
3318/08 12:20LB881007murni besar25,000
3418/08 12:20BLEKOK44murni kecil50,000
3518/08 12:19L81WKIF3DQlucky9950,000
3618/08 12:19B5D11murni kecil50,000
3718/08 12:19XSUHU99murni kecil5,000
3818/08 12:19RAJASAmurni kecil50,000
3918/08 12:18BAYUALFIANmurni besar50,000
4018/08 12:18BORUTO137murni kecil25,000
4118/08 12:18KHAIRIEL07murni besar5,000
4218/08 12:17BOCOLmurni besar5,000
4318/08 12:17EXPRES078murni besar50,000
4418/08 12:17RATTIH99murni besar25,000
4518/08 12:16KHAIRIEL07lucky992,500
4618/08 12:16SRTLUJPELITAmurni kecil50,000
4718/08 12:16JJOKER86murni besar25,000
4818/08 12:16CEMNESmurni besar50,000
4918/08 12:16MANJUR66murni kecil50,000
5018/08 12:16ALIJ28murni kecil50,000

Ceme Multi Jackpot System

Jackpot dilihat dari gabungan kartu pemain dengan kartu bandar. Bandar harus membeli jackpot sebanyak jumlah player yang sedang duduk. Sebagai contoh bila terdapat 3 pemain duduk bermain, dan bandar memutuskan untuk membeli jackpot Rp 1.000, maka pada periode tersebut bandar akan membeli jackpot sebanyak 3xRp1.000 = Rp3.000.

Jackpot bukanlah suatu keharusan untuk dibeli, namun kami memberikan suatu fitur tambahan untuk member tercinta dari www.ketuapoker88.com.

Terdapat tiga pilihan harga jackpot yang bisa anda beli yaitu :100,500 dan 1000 rupiah.

Hadiah dari Multi jackpot system www.ketuapoker88.com

  1. Murni Kecil x 50 harga jackpot yang anda beli.
      (contoh:anda membeli 1000 maka:1000 X 50 = 50.000)
  2. Murni Besar x 50 harga jackpot yang anda beli
      (contoh:anda membeli 1000 maka:1000 X 50 = 50.000)
  3. BALAK x 200 harga jackpot yang anda beli
      (contoh:anda membeli 1000 maka:1000 X 200 = 200.000)
  4. ENAM DEWA x 6666 harga jackpot yang anda beli
      (contoh:anda membeli 1000 maka:1000 X 6666 = 6.666.000)

Demikian adalah penjelasan dari Multi Jackpot www.ketuapoker88.com terima kasih dan selamat bermain salam hoki dari kami

Ceme Jackpot Winner

TOP ENAM DEWA
No.TanggalNamaPriceWin
118/08 12:29CANIN28murni enam666,600
218/08 12:29NADI032murni enam6,666,000
318/08 12:22TOITEE95murni enam6,666,000
418/08 12:22DJ1888murni enam6,666,000
518/08 11:53ARMON99murni enam666,600
TOP BALAK
No.TanggalNamaPriceWin
118/08 12:31GROSO88balak200,000
218/08 12:31ACPGLASSbalak200,000
318/08 12:31GROSO88balak200,000
418/08 12:30DARMO69balak200,000
518/08 12:30G0D3Tbalak200,000
LATEST JACKPOT
No.TanggalNamaPriceWin
118/08 12:31PUTRA9195murni kecil25,000
218/08 12:31NAGA2207murni kecil5,000
318/08 12:31GROSO88balak200,000
418/08 12:31ACPGLASSbalak200,000
518/08 12:31GROSO88balak200,000
618/08 12:30IND1ST1murni besar50,000
718/08 12:30ISNANJPmurni besar50,000
818/08 12:30SUDARAmurni kecil25,000
918/08 12:30KRISNA_009murni kecil25,000
1018/08 12:30DARMO69balak200,000
1118/08 12:30G0D3Tbalak200,000
1218/08 12:30COBER75murni besar50,000
1318/08 12:30AXCLJAWARAmurni besar50,000
1418/08 12:30SINURAT85murni besar50,000
1518/08 12:30TOMS24murni kecil25,000
1618/08 12:30WENDRY232murni kecil5,000
1718/08 12:30EKA_Smurni kecil5,000
1818/08 12:29HAYATI889balak200,000
1918/08 12:29DOLAR30XXXbalak200,000
2018/08 12:29AGE22murni kecil5,000
2118/08 12:29FRONTAL01murni besar50,000
2218/08 12:29GANDUT73murni kecil50,000
2318/08 12:29MMMM23murni kecil25,000
2418/08 12:29GANDUT73murni kecil50,000
2518/08 12:29BALAM95murni kecil25,000
2618/08 12:29TORRY81murni kecil50,000
2718/08 12:29JACKBRIMOBmurni kecil5,000
2818/08 12:29CANIN28murni enam666,600
2918/08 12:29NADI032murni enam6,666,000
3018/08 12:29PCK4PUCUK49murni kecil50,000
3118/08 12:29B181927833murni besar25,000
3218/08 12:29BEJO5958murni kecil50,000
3318/08 12:28IDAN375murni kecil50,000
3418/08 12:28ANTH0N8balak200,000
3518/08 12:28LAKBANHTAMmurni kecil50,000
3618/08 12:28HESOYAM88murni kecil50,000
3718/08 12:28E6F1F3B0murni kecil50,000
3818/08 12:28ASHILLA16murni kecil50,000
3918/08 12:28MITOMImurni kecil50,000
4018/08 12:28WINSmurni kecil50,000
4118/08 12:28MONYET2murni besar50,000
4218/08 12:28PAKSABARmurni besar25,000
4318/08 12:28VEYLISAmurni kecil25,000
4418/08 12:28RIYANBULE9murni besar25,000
4518/08 12:28JACKPOT22balak20,000
4618/08 12:27RAJAURUT89murni kecil25,000
4718/08 12:27ZHEE282murni besar50,000
4818/08 12:27NWAN504murni besar50,000
4918/08 12:27ALEX220499balak200,000
5018/08 12:27MAMA072murni kecil50,000